[[{"header":{"parameterUnit":"m.s-1","parameterCategory":1,"la1":30.2991,"la2":30.254,"lo1":-89.0895,"lo2":-89.0444,"dy":0.0017,"dx":0.0017,"nx":28,"ny":28,"refTime":"2024-07-17T21:00:00:Z","depth":0,"parameterNumber":2,"parameterNumberName":"U-component_of_WINDS"},"data":[0,0,0,0,0,0,0,0,0,0,0,0,0,0,0,0,0,0,0,0,0,0,0,0,0,0,0,0,0,0,0,0,0,0,0,0,0,0,0,0,0,0,0,0,0,0,0,0,0,0,0,0,0,0,0,0,0,0,2.216,2.216,0,2.2152,2.2151,2.2151,2.2132,2.2131,2.2131,2.2131,2.2121,2.2121,2.2121,0,0,0,0,0,0,0,0,0,0,0,0,0,2.2159,2.2159,2.216,2.216,2.216,2.2152,2.2151,2.2151,2.2132,2.2131,2.2131,2.2131,2.2121,2.2121,2.2121,0,0,0,0,0,0,0,0,0,0,0,0,0,2.2156,2.2159,2.216,2.2149,2.2148,2.2152,2.2151,2.2151,2.2132,2.2131,2.2131,2.213,2.2121,2.2121,2.2121,2.2134,0,0,2.2122,2.2122,0,0,0,0,0,0,0,0,2.2156,2.2156,2.2151,2.215,2.2149,2.2142,2.2147,2.2145,2.2132,2.2138,2.2131,2.213,2.2128,2.2128,2.2128,2.2134,2.2133,2.2122,2.2122,2.2122,2.2122,0,0,0,0,0,0,0,2.2156,2.2156,2.2157,2.2151,2.215,2.2144,2.2143,2.2147,2.2137,2.2138,2.2136,2.2135,2.2128,2.2127,2.2127,2.2133,2.2122,2.2122,2.2122,2.2122,2.2147,2.2148,0,0,0,0,0,0,2.2158,2.2156,2.2157,2.2156,2.2151,2.2145,2.2144,2.2145,2.2137,2.2135,2.2136,2.2135,2.2127,2.2127,2.2127,2.214,2.2122,2.2122,2.2122,2.2147,2.2147,2.2148,0,0,0,0,0,0,2.2158,2.2158,2.2157,2.2156,2.2155,2.2146,2.2147,2.2145,2.2145,2.2135,2.2133,2.2138,2.2127,2.2127,2.2132,2.2139,2.2122,2.2122,2.2146,2.2147,2.2148,2.2167,0,0,0,0,0,0,2.2158,2.2158,2.2164,2.2156,2.2156,2.2163,2.2148,2.2145,2.2145,2.2143,2.2136,2.2135,2.2126,2.2132,2.2132,2.2139,2.2122,2.2145,2.2147,2.2148,2.2166,2.2169,2.2171,0,0,0,0,0,2.2158,2.217,2.2164,2.2164,2.2162,2.2164,2.2163,2.2154,2.2146,2.2151,2.2144,2.2135,2.2139,2.2133,2.2133,2.214,2.2145,2.2146,2.2147,2.2165,2.2168,2.2171,0,0,0,0,0,0,2.2178,2.2168,2.2162,2.2172,2.2169,2.2161,2.2166,2.2158,2.2157,2.2155,2.2143,2.2142,2.2149,2.2145,2.2138,2.2151,2.214,2.2142,2.2153,2.2157,2.2159,2.2159,2.2122,0,0,0,0,0,2.2183,2.2186,2.2178,2.2187,2.2186,2.2176,2.2177,2.217,2.2166,2.2165,2.2159,2.2155,2.2156,2.2156,2.2156,2.2166,2.2163,2.2171,2.2173,2.2175,2.2176,2.218,2.2183,2.2152,2.2152,2.2152,0,0,2.2195,2.219,2.2192,2.2191,2.2188,2.219,2.2175,2.2179,2.218,2.2165,2.217,2.2165,2.216,2.2168,2.2171,2.2165,2.2184,2.2177,2.2179,2.2179,2.2181,2.2184,2.2187,2.2153,2.2153,2.2153,0,0,2.2217,2.2214,2.222,2.2217,2.2213,2.2206,2.2208,2.2201,2.2197,2.2202,2.219,2.2192,2.2193,2.2189,2.2188,2.2207,2.2198,2.2208,2.2221,2.2224,2.2227,2.2229,2.2234,2.2237,2.2209,2.2209,2.2209,0,2.2231,2.2235,2.2225,2.2229,2.2228,2.2214,2.222,2.2218,2.2214,2.2213,2.2207,2.2207,2.2203,2.2208,2.2213,2.2213,2.2213,2.2208,2.2227,2.2229,2.2231,2.2236,2.2238,2.221,2.221,2.221,2.221,0,2.2252,2.2255,2.2261,2.2256,2.2256,2.2261,2.2252,2.2252,2.2245,2.2239,2.2243,2.2238,2.2236,2.2237,2.223,2.2241,2.2237,2.2229,2.2218,2.2235,2.2239,2.2242,2.2212,2.2211,2.2211,2.2211,0,0,2.2286,2.2276,2.2278,2.2275,2.2269,2.2271,2.2275,2.2273,2.2273,2.227,2.2272,2.2273,2.2265,2.2264,2.2256,2.226,2.2274,2.2251,2.2251,2.2254,2.2284,2.2289,2.2292,2.2268,2.2268,2.2268,2.2284,0,2.2305,2.2312,2.2303,2.2311,2.2312,2.2299,2.2302,2.2298,2.2293,2.2293,2.2286,2.2287,2.2277,2.2276,2.2278,2.2271,2.2279,2.227,2.2269,2.2269,2.2269,2.2294,2.23,2.2315,2.2286,2.2286,2.2286,0,2.2328,2.2327,2.2335,2.2327,2.2327,2.233,2.2327,2.2328,2.2323,2.2318,2.2316,2.2307,2.2309,2.2299,2.2301,2.2295,2.2294,2.2291,2.2291,2.229,2.2278,2.2293,2.232,2.2322,2.2289,2.2289,2.2289,0,2.2351,2.235,2.2355,2.2353,2.2344,2.2347,2.2343,2.2337,2.2336,2.2334,2.2332,2.233,2.2328,2.2326,2.2317,2.231,2.232,2.2309,2.2315,2.2315,2.2317,2.2317,2.2343,2.2318,2.2318,2.2318,2.2318,0,2.2372,2.2378,2.2364,2.2367,2.2372,2.2362,2.2367,2.2362,2.2357,2.2358,2.2346,2.2347,2.2335,2.2334,2.2327,2.2329,2.2329,2.2325,2.2322,2.2325,2.2325,2.2323,2.2322,2.2319,2.2319,2.2319,2.2318,0,2.2398,2.2389,2.2393,2.2384,2.2382,2.2386,2.2378,2.238,2.2374,2.2375,2.2374,2.2364,2.2363,2.2353,2.235,2.2344,2.2349,2.2345,2.2351,2.2349,2.2355,2.2355,2.2381,2.2383,2.2358,2.2358,2.2358,0,2.2412,2.2415,2.2407,2.2407,2.2403,2.2404,2.2402,2.2392,2.2391,2.2385,2.2387,2.2385,2.2382,2.238,2.2372,2.2369,2.2364,2.2373,2.2363,2.2366,2.2363,2.2362,2.2362,2.2375,2.2376,2.2376,2.2376,0,2.2437,2.2432,2.2431,2.2428,2.2427,2.2424,2.2421,2.2421,2.2409,2.2409,2.2407,2.2405,2.2401,2.2399,2.2394,2.2389,2.238,2.2379,2.238,2.2383,2.2385,2.2383,2.2355,2.2379,2.2378,2.2378,2.2378,2.2378,2.2456,2.2458,2.2452,2.2451,2.2447,2.2444,2.2445,2.2438,2.2437,2.2433,2.2427,2.2426,2.2419,2.2412,2.2408,2.2407,2.2402,2.2403,2.2404,2.2404,2.2405,2.2386,2.2406,2.2406,2.2406,2.2406,2.2406,0,2.2479,2.2475,2.2474,2.2469,2.2468,2.246,2.2455,2.2455,2.2454,2.2449,2.2447,2.2444,2.2441,2.2433,2.2429,2.2429,2.2425,2.2428,2.2428,2.2427,2.241,2.2409,2.2432,2.2432,2.2432,2.2432,2.2432,2.2432,2.2491,2.2494,2.2489,2.2489,2.2484,2.2483,2.2481,2.2478,2.2474,2.2472,2.2469,2.2464,2.2457,2.2452,2.2449,2.2447,2.2445,2.245,2.2446,2.2431,2.2428,2.2426,2.2424,2.245,2.245,2.2462,2.2462,2.2462]},{"header":{"parameterUnit":"m.s-1","parameterCategory":1,"la1":30.2991,"la2":30.254,"lo1":-89.0895,"lo2":-89.0444,"dy":0.0017,"dx":0.0017,"nx":28,"ny":28,"refTime":"2024-07-17T21:00:00:Z","depth":0,"parameterNumber":3,"parameterNumberName":"V-component_of_WINDS"},"data":[0,0,0,0,0,0,0,0,0,0,0,0,0,0,0,0,0,0,0,0,0,0,0,0,0,0,0,0,0,0,0,0,0,0,0,0,0,0,0,0,0,0,0,0,0,0,0,0,0,0,0,0,0,0,0,0,0,0,4.268,4.268,0,4.2683,4.2683,4.2683,4.2686,4.2687,4.2687,4.2687,4.2689,4.2689,4.2689,0,0,0,0,0,0,0,0,0,0,0,0,0,4.2676,4.2676,4.268,4.268,4.268,4.2683,4.2683,4.2683,4.2686,4.2687,4.2687,4.2687,4.2689,4.2689,4.2689,0,0,0,0,0,0,0,0,0,0,0,0,0,4.2678,4.2676,4.268,4.2682,4.2682,4.2683,4.2683,4.2683,4.2686,4.2687,4.2687,4.2687,4.2689,4.2689,4.269,4.2688,0,0,4.269,4.269,0,0,0,0,0,0,0,0,4.2678,4.2678,4.2682,4.2682,4.2682,4.2684,4.2683,4.2685,4.2686,4.2685,4.2687,4.2687,4.2688,4.2688,4.2688,4.2688,4.2689,4.269,4.269,4.269,4.269,0,0,0,0,0,0,0,4.2678,4.2678,4.2681,4.2682,4.2682,4.2683,4.2683,4.2683,4.2686,4.2685,4.2685,4.2686,4.2688,4.2688,4.2688,4.2689,4.269,4.269,4.269,4.269,4.2688,4.2688,0,0,0,0,0,0,4.2678,4.2678,4.2681,4.2681,4.268,4.2683,4.2683,4.2684,4.2686,4.2686,4.2686,4.2686,4.2688,4.2688,4.2689,4.2687,4.269,4.269,4.269,4.2688,4.2688,4.2688,0,0,0,0,0,0,4.2677,4.2678,4.2681,4.268,4.268,4.2683,4.2683,4.2684,4.2684,4.2686,4.2687,4.2686,4.2688,4.2688,4.2688,4.2687,4.269,4.269,4.2688,4.2688,4.2688,4.2685,0,0,0,0,0,0,4.2677,4.2678,4.2677,4.268,4.268,4.2681,4.2683,4.2684,4.2684,4.2684,4.2686,4.2687,4.2688,4.2688,4.2688,4.2688,4.269,4.2688,4.2688,4.2688,4.2685,4.2685,4.2684,0,0,0,0,0,4.2677,4.2676,4.2677,4.2678,4.268,4.2681,4.2681,4.2683,4.2684,4.2684,4.2685,4.2687,4.2688,4.2688,4.2688,4.2688,4.2688,4.2688,4.2688,4.2685,4.2685,4.2684,0,0,0,0,0,0,4.2673,4.2677,4.2678,4.2678,4.2679,4.2681,4.2681,4.2682,4.2683,4.2683,4.2686,4.2686,4.2686,4.2687,4.2687,4.2687,4.2688,4.2688,4.2686,4.2686,4.2685,4.2685,4.269,0,0,0,0,0,4.2673,4.2673,4.2676,4.2675,4.2676,4.2678,4.2679,4.268,4.2682,4.2682,4.2683,4.2685,4.2685,4.2685,4.2686,4.2685,4.2686,4.2685,4.2684,4.2684,4.2684,4.2684,4.2683,4.2687,4.2687,4.2687,0,0,4.2671,4.2673,4.2673,4.2675,4.2676,4.2676,4.2679,4.2679,4.2679,4.2682,4.2682,4.2683,4.2685,4.2684,4.2684,4.2685,4.2683,4.2684,4.2684,4.2684,4.2683,4.2683,4.2683,4.2687,4.2687,4.2687,0,0,4.2668,4.2669,4.2669,4.267,4.2672,4.2674,4.2674,4.2676,4.2677,4.2677,4.2679,4.2679,4.268,4.2681,4.2682,4.268,4.2681,4.268,4.2678,4.2677,4.2677,4.2677,4.2676,4.2676,4.268,4.268,4.268,0,4.2665,4.2666,4.2669,4.2669,4.267,4.2673,4.2672,4.2673,4.2675,4.2676,4.2677,4.2678,4.2679,4.2679,4.2678,4.2679,4.2679,4.2679,4.2677,4.2677,4.2677,4.2676,4.2675,4.2679,4.2679,4.2679,4.2679,0,4.2663,4.2664,4.2663,4.2665,4.2666,4.2666,4.2669,4.2669,4.267,4.2672,4.2672,4.2674,4.2675,4.2675,4.2676,4.2675,4.2675,4.2677,4.2678,4.2676,4.2675,4.2675,4.2679,4.2679,4.2679,4.2679,0,0,4.2658,4.2661,4.2661,4.2662,4.2665,4.2665,4.2665,4.2666,4.2667,4.2668,4.2668,4.2669,4.267,4.2671,4.2672,4.2672,4.267,4.2673,4.2673,4.2673,4.2669,4.2668,4.2667,4.2671,4.2671,4.2671,4.2669,0,4.2655,4.2656,4.2658,4.2658,4.2659,4.2661,4.2661,4.2663,4.2664,4.2665,4.2666,4.2667,4.2669,4.2669,4.2669,4.267,4.2669,4.2671,4.2671,4.2671,4.2671,4.2667,4.2666,4.2664,4.2668,4.2668,4.2668,0,4.2652,4.2653,4.2653,4.2656,4.2656,4.2656,4.2658,4.2658,4.266,4.2661,4.2662,4.2664,4.2664,4.2666,4.2666,4.2667,4.2667,4.2668,4.2668,4.2668,4.2669,4.2667,4.2663,4.2663,4.2668,4.2668,4.2668,0,4.2648,4.265,4.265,4.2651,4.2654,4.2654,4.2655,4.2657,4.2657,4.2659,4.2659,4.266,4.2661,4.2661,4.2663,4.2664,4.2663,4.2665,4.2664,4.2664,4.2664,4.2664,4.266,4.2664,4.2664,4.2664,4.2664,0,4.2645,4.2645,4.2648,4.2649,4.2649,4.2651,4.2651,4.2652,4.2654,4.2654,4.2657,4.2657,4.266,4.266,4.2662,4.2662,4.2662,4.2663,4.2663,4.2662,4.2662,4.2663,4.2663,4.2664,4.2664,4.2664,4.2664,0,4.264,4.2643,4.2643,4.2646,4.2647,4.2647,4.2649,4.2649,4.2651,4.2651,4.2652,4.2654,4.2655,4.2657,4.2658,4.2659,4.2659,4.266,4.2658,4.2659,4.2657,4.2657,4.2653,4.2653,4.2658,4.2658,4.2658,0,4.2638,4.2638,4.2641,4.2642,4.2643,4.2644,4.2644,4.2647,4.2648,4.265,4.265,4.2651,4.2652,4.2653,4.2654,4.2655,4.2656,4.2655,4.2656,4.2656,4.2656,4.2656,4.2656,4.2654,4.2654,4.2654,4.2654,0,4.2634,4.2635,4.2636,4.2638,4.2639,4.264,4.2641,4.2642,4.2645,4.2645,4.2646,4.2647,4.2648,4.2649,4.2651,4.2652,4.2653,4.2654,4.2653,4.2653,4.2652,4.2652,4.2657,4.2654,4.2654,4.2654,4.2654,4.2654,4.263,4.2631,4.2633,4.2634,4.2635,4.2637,4.2637,4.2639,4.264,4.2641,4.2643,4.2643,4.2645,4.2647,4.2648,4.2649,4.265,4.2649,4.2649,4.2649,4.2649,4.2652,4.2649,4.2649,4.2649,4.2649,4.2649,0,4.2626,4.2628,4.2629,4.2631,4.2632,4.2634,4.2635,4.2636,4.2637,4.2638,4.2639,4.264,4.2641,4.2643,4.2644,4.2644,4.2645,4.2645,4.2645,4.2645,4.2648,4.2648,4.2644,4.2644,4.2644,4.2644,4.2644,4.2644,4.2624,4.2625,4.2626,4.2627,4.2629,4.263,4.2631,4.2632,4.2633,4.2634,4.2635,4.2637,4.2638,4.264,4.2641,4.2641,4.2641,4.264,4.2641,4.2644,4.2645,4.2645,4.2645,4.2641,4.2641,4.2638,4.2638,4.2638]}]]